Regional Weather Roundup
Issued by NWS Cleveland, OH

Home | Current Version | Previous Version | Graphics & Text | Print | Product List | Glossary On
Versions: 1 2 3 4 5 6 7 8 9 10 11 12 13 14 15 16 17 18 19 20 21 22 23 24 25 26 27 28 29 30 31 32 33 34 35 36 37 38 39 40 41 42 43 44 45 46 47 48 49 50
091
ASUS41 KCLE 131212
RWRCLE
OHIO REGIONAL WEATHER ROUNDUP
NATIONAL WEATHER SERVICE WILMINGTON, OH
700 AM EST SAT FEB 13 2016

NOTE: "FAIR" INDICATES FEW OR NO CLOUDS BELOW 12,000 FEET WITH NO
SIGNIFICANT WEATHER AND/OR OBSTRUCTIONS TO VISIBILITY.

OHZ001>008-015>018-024>027-034-035-043-044-131300-
   NORTHWEST OHIO

CITY           SKY/WX    TMP DP  RH WIND       PRES   REMARKS
DEFIANCE       CLOUDY     5  -6  60 VRB3      30.45R
FINDLAY        FAIR       3  -8  60 W8        30.41R WCI -10
TOLEDO EXPRESS FAIR       3  -7  63 W7        30.41R WCI  -9
TOLEDO EXEC    FAIR       5  -7  57 W9        30.43R WCI  -9
LIMA           FAIR       4  -4  69 NW8       30.41R WCI  -9
$$

OHZ009>014-019>023-028>033-038-089-131300-
   NORTHEAST OHIO

CITY           SKY/WX    TMP DP  RH WIND       PRES   REMARKS
CLE-HOPKINS    CLOUDY     8  -4  58 NW17      30.37R WCI -10
CLE-LAKEFRONT  MOCLDY    11   0  61 NW28G39   30.33R WCI -10
CUY CO. ARPT   MOCLDY    10 N/A N/A NW16G28   30.30  WCI  -7
LORAIN-ELYRIA  CLOUDY     7  -6  55 N16       30.36R WCI -11
ASHTABULA      LGT SNOW   8   4  83 NW8       30.25R VSB 3/4 WCI  -4
AKRON-CANTON   FAIR       3  -8  60 NW15      30.28R WCI -16
WOOSTER        LGT SNOW   4  -1  80 NW10      30.33R WCI -11
MANSFIELD      FAIR       2  -9  60 NW13G18   30.32R WCI -15
YOUNGSTOWN     LGT SNOW   6   1  80 W10       30.23R WCI  -9
$$

OHZ042-051>053-060>062-070>072-077>081-131300-
  SOUTHWEST OHIO

CITY           SKY/WX    TMP DP  RH WIND       PRES   REMARKS
CINC-COVINGTON FAIR      11   2  67 NW9       30.46R WCI  -2
CINC-LUNKEN    MOCLDY    13   3  64 NW8       30.51R WCI   2
HAMILTON       CLOUDY    12   4  70 NW7       30.50R WCI   1
DAYTON         FAIR       4  -6  63 N9        30.44R WCI -10
WRIGHT-PAT AFB CLEAR      8  -5  56 NW7       30.45R WCI  -4
DAYTON GENERAL FAIR       8  -6  52 N9        30.43R WCI  -5
WILMINGTON     FAIR       8  -4  58 NW12      30.41R WCI  -7
$$

OHZ036-037-039>041-045>050-054>059-063>069-073>076-082>088-131300-
  CENTRAL AND SOUTHEAST OHIO

CITY           SKY/WX    TMP DP  RH WIND       PRES   REMARKS
COLUMBUS       FAIR       6  -7  54 NW10      30.41R WCI  -9
OSU AIRPORT    FAIR       5  -4  66 NW9       30.40R WCI  -9
BOLTON FIELD   NOT AVBL
RICKENBACK AFB FAIR       7  -2  66 NW8       30.42R WCI  -5
NEWARK         FAIR       6  -8  52 NW10      30.39R WCI  -9
MARION         FAIR       4  -8  57 NW9       30.39R WCI -10
LANCASTER      FAIR       7  -5  57 NW12      30.40R WCI  -8
ZANESVILLE     FAIR       8 -11  41 NW8       30.37R WCI  -4
NEW PHILLY     FAIR       5  -2  72 W9        30.35R WCI  -9
$$




USA.gov is the U.S. government's official web portal to all federal, state and local government web resources and services.